Retour au catalogue

TIANMU-1 10

ActifMétéoSSO
NORAD 57402·PAYLOAD·🇨🇳 China

Lancé Jul 20, 2023 depuis Jiuquan Satellite Launch Center

Loading…

Prochains Passages (prochaines 24 heures)

TLE

FraisSource: Space-Track

Époque: Sep 14, 2026, 22:16 UTC

1 57402U 23101D   26257.92794428  .00005531  00000-0  18868-3 0  9990
2 57402  97.2531 306.8212 0005085 156.2060 203.9417 15.30734950175362

Suivez TIANMU-1 10 en temps réel avec AllMySat

Download on the App Store